MST,Max TemperatureF,Mean TemperatureF,Min TemperatureF,Max Dew PointF,MeanDew PointF,Min DewpointF,Max Humidity, Mean Humidity, Min Humidity, Max Sea Level PressureIn, Mean Sea Level PressureIn, Min Sea Level PressureIn, Max VisibilityMiles, Mean VisibilityMiles, Min VisibilityMiles, Max Wind SpeedMPH, Mean Wind SpeedMPH, Max Gust SpeedMPH,PrecipitationIn, CloudCover, Events, WindDirDegrees
2013-12-1,42,37,32,38,35,31,100,93,85,30.22,29.92,29.71,10,6,0,15,3,17,0.13,8,Rain,122
2013-12-2,41,31,20,38,29,15,100,78,56,30.00,29.69,29.56,10,5,0,24,8,35,0.19,8,Fog-Rain-Snow,321
2013-12-3,20,13,5,12,5,-3,84,67,49,30.38,30.17,29.91,10,8,2,15,7,21,0.02,6,Snow,81
2013-12-4,13,5,-4,-1,-4,-8,87,67,46,30.47,30.43,30.38,10,10,10,9,4,13,0.00,2,,285
2013-12-5,9,2,-6,-3,-6,-10,87,72,57,30.48,30.41,30.23,10,8,2,16,3,21,T,5,Snow,238
2013-12-6,6,1,-4,-7,-13,-18,60,52,44,30.54,30.48,30.42,10,10,10,23,15,29,0.00,3,,113
2013-12-7,4,-4,-13,-12,-16,-20,79,62,44,30.47,30.43,30.34,10,10,10,23,6,28,0.00,0,,10
2013-12-8,2,-6,-14,-4,-10,-19,87,76,65,30.64,30.47,30.25,10,7,2,6,0,6,T,5,Snow,235
2013-12-9,9,0,-9,7,-1,-13,95,87,79,30.65,30.45,30.22,10,3,0,6,1,6,0.10,8,Fog-Snow,254
2013-12-10,27,18,9,19,12,6,92,80,68,30.48,30.33,30.18,10,5,1,12,1,15,0.09,8,Snow,317
2013-12-11,26,21,16,21,18,15,100,88,75,30.54,30.49,30.35,10,10,8,8,2,9,T,7,,172
2013-12-12,26,21,15,21,19,13,92,87,81,30.45,30.31,30.20,10,7,5,6,1,10,0.00,6,,285
2013-12-13,33,28,22,30,25,20,96,89,82,30.45,30.25,30.08,10,4,1,7,1,7,0.01,8,Snow,132
2013-12-14,37,31,25,31,29,24,100,91,82,30.48,30.43,30.35,10,7,3,12,2,14,0.00,7,,310
2013-12-15,43,31,18,32,23,16,100,83,65,30.38,30.29,30.24,10,6,0,13,3,16,0.00,6,Fog,347
2013-12-16,47,37,26,32,27,23,72,59,45,30.42,30.36,30.30,10,10,10,18,7,23,0.00,3,,299
2013-12-17,39,29,18,26,23,17,92,76,59,30.41,30.22,30.03,10,10,10,7,1,12,0.00,1,,40
2013-12-18,43,36,28,31,27,23,85,71,57,29.99,29.90,29.79,10,10,5,12,3,36,0.01,6,Snow,3
2013-12-19,34,27,19,27,16,11,92,74,55,30.21,30.09,29.86,10,9,2,26,7,39,T,6,Snow,16
2013-12-20,23,18,13,21,18,11,100,87,73,30.12,29.76,29.58,10,4,1,7,2,7,0.22,7,Snow,277
2013-12-21,31,27,22,26,23,19,96,87,78,30.10,29.90,29.62,10,8,2,7,1,9,0.02,8,Snow,145
2013-12-22,38,32,26,29,27,25,100,82,64,30.32,30.21,30.09,10,8,5,15,4,20,T,8,Snow,29
2013-12-23,42,36,29,34,31,27,100,85,70,30.30,30.14,29.94,10,6,2,30,3,41,0.27,8,Rain-Snow,285
2013-12-24,39,30,20,28,23,18,82,67,52,30.59,30.46,30.22,10,10,10,20,7,24,T,7,,300
2013-12-25,29,21,12,22,17,11,100,88,75,30.66,30.57,30.49,10,9,2,7,1,21,0.00,2,,215
2013-12-26,38,31,23,26,23,21,96,80,63,30.50,30.43,30.36,10,10,8,7,1,25,0.00,4,,67
2013-12-27,43,28,13,29,19,10,100,80,60,30.41,30.27,30.10,10,5,0,22,2,26,T,2,Fog-Rain,296
2013-12-28,41,37,33,30,25,21,70,60,50,30.44,30.32,30.13,10,10,10,17,6,28,T,7,,312
2013-12-29,35,30,24,27,22,17,85,71,56,30.43,30.35,30.25,10,10,10,9,2,10,T,7,,3
2013-12-30,35,30,25,31,26,22,92,81,69,30.33,30.24,30.13,10,10,9,7,1,10,0.01,6,Rain,154
2013-12-31,39,35,31,35,32,30,100,88,76,30.28,30.15,30.09,10,9,4,9,3,13,0.04,8,Rain,358